KZR915 UAAA-LTAI

Flight info

Callsign KZR915
Flight time 5h 35m
Altitude 34000
Route EKLAT Z370 TOMGO M610 ARBOL Z621 TRK N147 OTBOR A480 TIMGA B476 METKA L88 RASAM N199 LUSAL M11 EDATA N161 PEMAN N161 INDUR UN161 ERZ UL615 ARKIN UA4 SIV UA285 SELVI UA285 MUT UR55 KONAK
Aircraft A21N/M-SDE3FGHIRWY/LB1

Departure

Time 2026-05-07 11:06
Airport Almaty International Airport (UAAA)

Arrival

Time 2026-05-07 16:41
Airport Antalya International Airport (LTAI)
Time Latitude Longitude Altitude Speed Heading
2026-05-07 10:51 43.35041 77.01267 2234 ft 0 kts 245°
2026-05-07 10:56 43.35041 77.01269 2234 ft 1 kts 247°
2026-05-07 10:57 43.35049 77.01286 2233 ft 2 kts 241°
2026-05-07 10:57 43.35055 77.01304 2233 ft 2 kts 248°
2026-05-07 10:57 43.35061 77.01323 2233 ft 1 kts 244°
2026-05-07 10:57 43.35065 77.01335 2233 ft 2 kts 241°
2026-05-07 10:58 43.35075 77.01350 2233 ft 2 kts 213°
2026-05-07 10:58 43.35089 77.01359 2233 ft 2 kts 191°
2026-05-07 10:58 43.35104 77.01360 2232 ft 2 kts 169°
2026-05-07 10:58 43.35113 77.01356 2232 ft 1 kts 156°
2026-05-07 10:59 43.35119 77.01352 2232 ft 0 kts 154°
2026-05-07 11:01 43.35115 77.01355 2232 ft 2 kts 155°
2026-05-07 11:01 43.35080 77.01376 2233 ft 8 kts 156°
2026-05-07 11:01 43.35017 77.01416 2234 ft 10 kts 153°
2026-05-07 11:01 43.34943 77.01462 2236 ft 12 kts 155°
2026-05-07 11:02 43.34890 77.01494 2237 ft 12 kts 158°
2026-05-07 11:02 43.34810 77.01496 2239 ft 11 kts 198°
2026-05-07 11:02 43.34734 77.01461 2240 ft 11 kts 199°
2026-05-07 11:02 43.34664 77.01450 2243 ft 9 kts 164°
2026-05-07 11:03 43.34601 77.01466 2245 ft 9 kts 175°
2026-05-07 11:03 43.34537 77.01495 2247 ft 10 kts 156°
2026-05-07 11:03 43.34460 77.01543 2249 ft 13 kts 155°
2026-05-07 11:03 43.34369 77.01601 2250 ft 15 kts 155°
2026-05-07 11:04 43.34269 77.01663 2251 ft 16 kts 156°
2026-05-07 11:04 43.34187 77.01718 2253 ft 11 kts 149°
2026-05-07 11:04 43.34158 77.01807 2253 ft 11 kts 81°
2026-05-07 11:04 43.34176 77.01854 2253 ft 2 kts 56°
2026-05-07 11:05 43.34178 77.01859 2253 ft 0 kts 56°
2026-05-07 11:05 43.34206 77.01915 2253 ft 32 kts 56°
2026-05-07 11:05 43.34474 77.02458 2252 ft 102 kts 55°
2026-05-07 11:05 43.34981 77.03481 2250 ft 157 kts 55°
2026-05-07 11:06 43.35674 77.04837 2445 ft 181 kts 53°
2026-05-07 11:06 43.36411 77.06279 2879 ft 190 kts 54°
2026-05-07 11:06 43.37173 77.07773 3454 ft 193 kts 51°
2026-05-07 11:06 43.38247 77.08883 3891 ft 199 kts 15°
2026-05-07 11:07 43.39606 77.08682 4050 ft 207 kts 330°
2026-05-07 11:07 43.40563 77.07165 4190 ft 220 kts 292°
2026-05-07 11:07 43.40710 77.05047 4380 ft 232 kts 265°
2026-05-07 11:07 43.40574 77.02763 4540 ft 248 kts 268°
2026-05-07 11:08 43.40502 77.00321 4782 ft 262 kts 269°
2026-05-07 11:08 43.40451 76.97757 5063 ft 274 kts 269°
2026-05-07 11:08 43.40408 76.95133 5524 ft 278 kts 269°
2026-05-07 11:08 43.40365 76.92501 6053 ft 279 kts 269°
2026-05-07 11:09 43.40323 76.89825 6597 ft 281 kts 269°
2026-05-07 11:09 43.40282 76.87154 7141 ft 282 kts 270°
2026-05-07 11:09 43.40240 76.84454 7685 ft 284 kts 270°
2026-05-07 11:09 43.40197 76.81772 8244 ft 285 kts 270°
2026-05-07 11:10 43.40154 76.79024 8823 ft 286 kts 270°
2026-05-07 11:10 43.40111 76.76328 9393 ft 287 kts 270°
2026-05-07 11:10 43.40068 76.73566 9954 ft 288 kts 270°
2026-05-07 11:10 43.40024 76.70834 10490 ft 291 kts 269°
2026-05-07 11:11 43.39978 76.68015 10796 ft 303 kts 269°
2026-05-07 11:11 43.39928 76.65035 11040 ft 317 kts 269°
2026-05-07 11:11 43.39875 76.61975 11349 ft 328 kts 269°
2026-05-07 11:11 43.39820 76.58817 11866 ft 331 kts 269°
2026-05-07 11:12 43.39764 76.55694 12413 ft 333 kts 269°
2026-05-07 11:12 43.39706 76.52483 12962 ft 334 kts 269°
2026-05-07 11:12 43.39648 76.49320 13508 ft 336 kts 269°
2026-05-07 11:12 43.39588 76.46122 13962 ft 340 kts 269°
2026-05-07 11:13 43.39526 76.42853 14461 ft 342 kts 270°
2026-05-07 11:13 43.39463 76.39577 14990 ft 344 kts 270°
2026-05-07 11:13 43.39400 76.36295 15469 ft 346 kts 270°
2026-05-07 11:13 43.39335 76.32995 15935 ft 349 kts 269°
2026-05-07 11:14 43.39269 76.29660 16397 ft 351 kts 269°
2026-05-07 11:14 43.39201 76.26334 16870 ft 353 kts 269°
2026-05-07 11:14 43.39132 76.22951 17319 ft 355 kts 269°
2026-05-07 11:14 43.39062 76.19534 17759 ft 358 kts 269°
2026-05-07 11:15 43.38991 76.16144 18188 ft 360 kts 269°
2026-05-07 11:15 43.38918 76.12687 18621 ft 362 kts 269°
2026-05-07 11:15 43.38844 76.09246 19038 ft 364 kts 269°
2026-05-07 11:15 43.38768 76.05754 19447 ft 366 kts 269°
2026-05-07 11:16 43.38690 76.02278 19832 ft 369 kts 269°
2026-05-07 11:16 43.38609 75.98731 20237 ft 371 kts 269°
2026-05-07 11:16 43.38528 75.95231 20631 ft 372 kts 269°
2026-05-07 11:16 43.38444 75.91653 20991 ft 375 kts 269°
2026-05-07 11:17 43.38360 75.88100 21372 ft 377 kts 269°
2026-05-07 11:17 43.38274 75.84489 21740 ft 379 kts 269°
2026-05-07 11:17 43.38186 75.80852 22104 ft 380 kts 269°
2026-05-07 11:17 43.38097 75.77249 22453 ft 382 kts 269°
2026-05-07 11:18 43.38006 75.73582 22799 ft 384 kts 268°
2026-05-07 11:18 43.37914 75.69941 23146 ft 386 kts 268°
2026-05-07 11:18 43.37819 75.66233 23492 ft 387 kts 268°
2026-05-07 11:18 43.37723 75.62566 23824 ft 388 kts 268°
2026-05-07 11:19 43.37633 75.58870 24135 ft 390 kts 270°
2026-05-07 11:19 43.37730 75.55165 24449 ft 391 kts 275°
2026-05-07 11:19 43.38098 75.51478 24765 ft 392 kts 281°
2026-05-07 11:19 43.38717 75.47787 25054 ft 394 kts 284°
2026-05-07 11:20 43.39397 75.44149 25322 ft 396 kts 285°
2026-05-07 11:20 43.40088 75.40493 25582 ft 397 kts 285°
2026-05-07 11:20 43.40778 75.36828 25854 ft 399 kts 285°
2026-05-07 11:20 43.41464 75.33151 26112 ft 400 kts 284°
2026-05-07 11:21 43.42145 75.29477 26366 ft 402 kts 284°
2026-05-07 11:21 43.42832 75.25759 26624 ft 403 kts 284°
2026-05-07 11:21 43.43528 75.21991 26882 ft 404 kts 284°
2026-05-07 11:21 43.44211 75.18291 27140 ft 405 kts 284°
2026-05-07 11:22 43.44900 75.14553 27398 ft 406 kts 284°
2026-05-07 11:22 43.45589 75.10802 27630 ft 407 kts 284°
2026-05-07 11:22 43.46284 75.07008 27857 ft 408 kts 284°
2026-05-07 11:22 43.46976 75.03224 28083 ft 410 kts 284°
2026-05-07 11:23 43.47669 74.99427 28322 ft 411 kts 284°
2026-05-07 11:23 43.48360 74.95621 28553 ft 412 kts 284°
2026-05-07 11:23 43.49048 74.91827 28783 ft 413 kts 284°
2026-05-07 11:23 43.49742 74.87990 28980 ft 414 kts 284°
2026-05-07 11:24 43.50440 74.84129 29160 ft 416 kts 284°
2026-05-07 11:24 43.51131 74.80293 29360 ft 418 kts 284°
2026-05-07 11:24 43.51831 74.76412 29574 ft 418 kts 284°
2026-05-07 11:24 43.52531 74.72525 29791 ft 419 kts 284°
2026-05-07 11:25 43.53228 74.68632 30003 ft 420 kts 284°
2026-05-07 11:25 43.53624 74.64683 30149 ft 423 kts 273°
2026-05-07 11:25 43.53658 74.60611 30375 ft 423 kts 271°
2026-05-07 11:25 43.53668 74.56553 30555 ft 425 kts 271°
2026-05-07 11:26 43.53682 74.52537 30730 ft 426 kts 272°
2026-05-07 11:26 43.53703 74.48457 30915 ft 427 kts 272°
2026-05-07 11:26 43.53730 74.44371 31090 ft 428 kts 272°
2026-05-07 11:26 43.53761 74.40276 31269 ft 429 kts 272°
2026-05-07 11:27 43.53793 74.36175 31447 ft 429 kts 272°
2026-05-07 11:27 43.53825 74.32061 31632 ft 430 kts 271°
2026-05-07 11:27 43.53858 74.27991 31822 ft 430 kts 271°
2026-05-07 11:27 43.53889 74.23879 32029 ft 430 kts 271°
2026-05-07 11:28 43.53950 74.15653 32083 ft 430 kts 271°
2026-05-07 11:28 43.54004 74.07480 32071 ft 429 kts 272°
2026-05-07 11:29 43.54053 73.99269 32059 ft 429 kts 272°
2026-05-07 11:29 43.54097 73.91114 32050 ft 430 kts 272°
2026-05-07 11:30 43.54135 73.82870 32045 ft 429 kts 272°
2026-05-07 11:30 43.54167 73.74696 32034 ft 429 kts 272°
2026-05-07 11:31 43.54193 73.66523 32033 ft 429 kts 272°
2026-05-07 11:31 43.54213 73.58303 32035 ft 428 kts 272°
2026-05-07 11:32 43.54232 73.46077 32043 ft 427 kts 271°
2026-05-07 11:33 43.54237 73.37933 32045 ft 427 kts 271°
2026-05-07 11:33 43.54237 73.29781 32044 ft 427 kts 271°
2026-05-07 11:34 43.54230 73.21629 32048 ft 426 kts 271°
2026-05-07 11:34 43.54218 73.13472 32047 ft 427 kts 271°
2026-05-07 11:35 43.54200 73.05315 32045 ft 426 kts 271°
2026-05-07 11:35 43.54178 72.97205 32042 ft 426 kts 271°
2026-05-07 11:36 43.54149 72.89053 32040 ft 425 kts 271°
2026-05-07 11:36 43.54114 72.80955 32032 ft 425 kts 271°
2026-05-07 11:37 43.54074 72.72803 32031 ft 426 kts 271°
2026-05-07 11:37 43.54027 72.64705 32028 ft 425 kts 271°
2026-05-07 11:38 43.53974 72.56605 32025 ft 426 kts 271°
2026-05-07 11:38 43.53917 72.48446 32030 ft 426 kts 271°
2026-05-07 11:39 43.53854 72.40340 32028 ft 426 kts 270°
2026-05-07 11:39 43.53783 72.32188 32029 ft 426 kts 270°
2026-05-07 11:40 43.53708 72.24045 32025 ft 426 kts 270°
2026-05-07 11:40 43.53627 72.15908 32034 ft 426 kts 270°
2026-05-07 11:41 43.53540 72.07791 32027 ft 424 kts 270°
2026-05-07 11:41 43.53448 71.99696 32025 ft 425 kts 270°
2026-05-07 11:42 43.53351 71.91625 32025 ft 425 kts 270°
2026-05-07 11:42 43.53247 71.83525 32025 ft 425 kts 270°
2026-05-07 11:43 43.53137 71.75397 32016 ft 425 kts 270°
2026-05-07 11:43 43.53022 71.67273 32019 ft 425 kts 270°
2026-05-07 11:44 43.52903 71.59216 32024 ft 424 kts 269°
2026-05-07 11:44 43.52776 71.51070 32023 ft 425 kts 269°
2026-05-07 11:45 43.52643 71.42968 32027 ft 425 kts 269°
2026-05-07 11:45 43.52504 71.34853 32019 ft 424 kts 269°
2026-05-07 11:46 43.52361 71.26797 32013 ft 424 kts 269°
2026-05-07 11:46 43.52211 71.18699 32013 ft 423 kts 269°
2026-05-07 11:47 43.52057 71.10624 32002 ft 423 kts 269°
2026-05-07 11:47 43.51894 71.02528 32006 ft 423 kts 268°
2026-05-07 11:48 43.51725 70.94425 32003 ft 424 kts 268°
2026-05-07 11:48 43.51524 70.86367 31996 ft 423 kts 266°
2026-05-07 11:49 43.50979 70.78299 31998 ft 424 kts 265°
2026-05-07 11:49 43.50382 70.70260 31989 ft 424 kts 265°
2026-05-07 11:50 43.49784 70.62278 31989 ft 423 kts 264°
2026-05-07 11:50 43.49175 70.54195 32008 ft 424 kts 264°
2026-05-07 11:51 43.48564 70.46175 32003 ft 424 kts 264°
2026-05-07 11:51 43.47945 70.38129 32001 ft 423 kts 264°
2026-05-07 11:52 43.47321 70.30087 32008 ft 424 kts 264°
2026-05-07 11:52 43.46691 70.22038 32018 ft 424 kts 264°
2026-05-07 11:53 43.46056 70.14009 32027 ft 423 kts 264°
2026-05-07 11:53 43.45421 70.06026 32044 ft 423 kts 264°
2026-05-07 11:54 43.44775 69.98013 32065 ft 423 kts 264°
2026-05-07 11:54 43.44124 69.90000 32064 ft 422 kts 264°
2026-05-07 11:55 43.43468 69.81985 32069 ft 423 kts 264°
2026-05-07 11:55 43.42807 69.73994 32070 ft 422 kts 264°
2026-05-07 11:56 43.42141 69.65990 32056 ft 423 kts 264°
2026-05-07 11:56 43.41471 69.58003 32062 ft 423 kts 264°
2026-05-07 11:57 43.40793 69.49985 32052 ft 423 kts 263°
2026-05-07 11:57 43.40111 69.42001 32044 ft 423 kts 263°
2026-05-07 11:58 43.39422 69.34015 32039 ft 423 kts 263°
2026-05-07 11:58 43.38730 69.26047 32025 ft 422 kts 263°
2026-05-07 11:59 43.38028 69.18036 32017 ft 422 kts 263°
2026-05-07 11:59 43.37329 69.10101 32007 ft 421 kts 263°
2026-05-07 12:00 43.36618 69.02106 32002 ft 422 kts 263°
2026-05-07 12:00 43.35902 68.94134 31995 ft 422 kts 263°
2026-05-07 12:01 43.35182 68.86181 32270 ft 420 kts 262°
2026-05-07 12:01 43.34825 68.82259 32804 ft 412 kts 262°
2026-05-07 12:01 43.34470 68.78374 33233 ft 408 kts 262°
2026-05-07 12:01 43.34121 68.74571 33475 ft 407 kts 262°
2026-05-07 12:02 43.33763 68.70697 33634 ft 408 kts 262°
2026-05-07 12:02 43.33404 68.66826 33818 ft 408 kts 262°
2026-05-07 12:02 43.33052 68.63031 33956 ft 408 kts 262°
2026-05-07 12:03 43.32100 68.55399 33959 ft 406 kts 257°
2026-05-07 12:03 43.30767 68.47870 33956 ft 406 kts 256°
2026-05-07 12:04 43.29418 68.40373 33959 ft 407 kts 256°
2026-05-07 12:04 43.28061 68.32868 33950 ft 407 kts 255°
2026-05-07 12:05 43.26694 68.25354 33945 ft 407 kts 255°
2026-05-07 12:05 43.25322 68.17830 33947 ft 408 kts 255°
2026-05-07 12:06 43.23949 68.10329 33946 ft 408 kts 255°
2026-05-07 12:06 43.22568 68.02814 33935 ft 408 kts 255°
2026-05-07 12:07 43.21170 67.95253 33918 ft 410 kts 255°
2026-05-07 12:07 43.19781 67.87759 33914 ft 409 kts 255°
2026-05-07 12:08 43.18381 67.80241 33909 ft 408 kts 255°
2026-05-07 12:08 43.16974 67.72711 33902 ft 408 kts 255°
2026-05-07 12:09 43.15574 67.65243 33896 ft 408 kts 255°
2026-05-07 12:09 43.14157 67.57710 33909 ft 409 kts 255°
2026-05-07 12:10 43.12732 67.50179 33901 ft 409 kts 255°
2026-05-07 12:10 43.11309 67.42689 33901 ft 410 kts 255°
2026-05-07 12:11 43.09876 67.35164 33903 ft 410 kts 255°
2026-05-07 12:11 43.08439 67.27659 33907 ft 409 kts 255°
2026-05-07 12:12 43.06989 67.20113 33905 ft 409 kts 255°
2026-05-07 12:12 43.05548 67.12637 33901 ft 408 kts 255°
2026-05-07 12:13 43.04104 67.05174 33900 ft 408 kts 255°
2026-05-07 12:13 43.02654 66.97708 33896 ft 408 kts 254°
2026-05-07 12:14 43.01197 66.90241 33891 ft 408 kts 255°
2026-05-07 12:14 42.99737 66.82780 33886 ft 408 kts 254°
2026-05-07 12:15 42.98260 66.75269 33892 ft 409 kts 255°
2026-05-07 12:15 42.96790 66.67811 33890 ft 410 kts 254°
2026-05-07 12:16 42.95307 66.60324 33890 ft 411 kts 254°
2026-05-07 12:16 42.93811 66.52801 33889 ft 411 kts 254°
2026-05-07 12:17 42.92319 66.45319 33887 ft 411 kts 254°
2026-05-07 12:17 42.90820 66.37834 33881 ft 411 kts 254°
2026-05-07 12:18 42.89306 66.30307 33886 ft 411 kts 253°
2026-05-07 12:18 42.87800 66.22839 33879 ft 411 kts 253°
2026-05-07 12:19 42.86283 66.15350 33883 ft 411 kts 253°
2026-05-07 12:19 42.84761 66.07861 33884 ft 411 kts 253°
2026-05-07 12:20 42.83240 66.00401 33879 ft 411 kts 253°
2026-05-07 12:20 42.81709 65.92926 33880 ft 412 kts 253°
2026-05-07 12:21 42.80165 65.85412 33881 ft 413 kts 253°
2026-05-07 12:21 42.78616 65.77902 33881 ft 413 kts 253°
2026-05-07 12:22 42.77068 65.70425 33881 ft 413 kts 253°
2026-05-07 12:22 42.75513 65.62938 33881 ft 412 kts 253°
2026-05-07 12:23 42.73954 65.55471 33880 ft 412 kts 253°
2026-05-07 12:23 42.72392 65.48003 33879 ft 412 kts 253°
2026-05-07 12:24 42.70824 65.40536 33879 ft 412 kts 253°
2026-05-07 12:24 42.69249 65.33064 33877 ft 412 kts 252°
2026-05-07 12:25 42.67668 65.25599 33876 ft 413 kts 252°
2026-05-07 12:25 42.66089 65.18154 33874 ft 412 kts 252°
2026-05-07 12:26 42.64494 65.10668 33874 ft 412 kts 252°
2026-05-07 12:26 42.62899 65.03215 33874 ft 412 kts 252°
2026-05-07 12:27 42.61311 64.95814 33875 ft 412 kts 252°
2026-05-07 12:27 42.59711 64.88383 33883 ft 412 kts 252°
2026-05-07 12:28 42.58105 64.80958 33894 ft 411 kts 252°
2026-05-07 12:28 42.56495 64.73525 33898 ft 411 kts 252°
2026-05-07 12:29 42.54881 64.66112 33901 ft 411 kts 252°
2026-05-07 12:29 42.53257 64.58681 33900 ft 411 kts 252°
2026-05-07 12:30 42.51640 64.51302 33900 ft 411 kts 252°
2026-05-07 12:30 42.50011 64.43894 33897 ft 411 kts 252°
2026-05-07 12:31 42.48378 64.36492 33899 ft 411 kts 252°
2026-05-07 12:31 42.46738 64.29082 33900 ft 411 kts 251°
2026-05-07 12:32 42.45100 64.21710 33902 ft 411 kts 251°
2026-05-07 12:32 42.43456 64.14337 33897 ft 411 kts 251°
2026-05-07 12:33 42.40981 64.03284 33894 ft 411 kts 251°
2026-05-07 12:33 42.39315 63.95871 33881 ft 412 kts 251°
2026-05-07 12:34 42.37658 63.88530 33888 ft 411 kts 251°
2026-05-07 12:34 42.35990 63.81163 33891 ft 412 kts 251°
2026-05-07 12:35 42.34308 63.73752 33906 ft 411 kts 251°
2026-05-07 12:35 42.32630 63.66392 33907 ft 412 kts 251°
2026-05-07 12:36 42.30951 63.59045 33902 ft 412 kts 251°
2026-05-07 12:36 42.29259 63.51673 33886 ft 412 kts 251°
2026-05-07 12:37 42.27565 63.44318 33880 ft 413 kts 251°
2026-05-07 12:37 42.25860 63.36932 33874 ft 413 kts 251°
2026-05-07 12:38 42.24153 63.29563 33867 ft 413 kts 250°
2026-05-07 12:38 42.22433 63.22164 33855 ft 413 kts 251°
2026-05-07 12:39 42.20719 63.14823 33845 ft 413 kts 251°
2026-05-07 12:39 42.18993 63.07440 33839 ft 413 kts 250°
2026-05-07 12:40 42.17271 63.00106 33836 ft 413 kts 250°
2026-05-07 12:40 42.15539 62.92752 33835 ft 414 kts 250°
2026-05-07 12:41 42.13795 62.85368 33841 ft 413 kts 250°
2026-05-07 12:41 42.12063 62.78062 33845 ft 413 kts 250°
2026-05-07 12:42 42.10317 62.70719 33854 ft 411 kts 250°
2026-05-07 12:42 42.08572 62.63410 33859 ft 411 kts 250°
2026-05-07 12:43 42.06829 62.56129 33865 ft 409 kts 250°
2026-05-07 12:43 42.05088 62.48880 33871 ft 409 kts 250°
2026-05-07 12:44 42.03340 62.41625 33876 ft 408 kts 251°
2026-05-07 12:44 42.01598 62.34413 33882 ft 408 kts 250°
2026-05-07 12:45 41.99849 62.27197 33885 ft 407 kts 250°
2026-05-07 12:45 41.98091 62.19967 33888 ft 407 kts 250°
2026-05-07 12:46 41.96342 62.12796 33894 ft 405 kts 250°
2026-05-07 12:46 41.94589 62.05636 33893 ft 405 kts 250°
2026-05-07 12:47 41.92834 61.98488 33892 ft 405 kts 250°
2026-05-07 12:47 41.91067 61.91308 33885 ft 404 kts 250°
2026-05-07 12:48 41.89309 61.84194 33879 ft 404 kts 250°
2026-05-07 12:48 41.87549 61.77091 33874 ft 404 kts 250°
2026-05-07 12:49 41.85777 61.69955 33889 ft 404 kts 250°
2026-05-07 12:49 41.84000 61.62824 33890 ft 404 kts 250°
2026-05-07 12:50 41.82216 61.55684 33889 ft 404 kts 250°
2026-05-07 12:50 41.80434 61.48575 33887 ft 404 kts 250°
2026-05-07 12:51 41.78649 61.41482 33891 ft 404 kts 250°
2026-05-07 12:51 41.76857 61.34381 33890 ft 403 kts 249°
2026-05-07 12:52 41.75061 61.27284 33894 ft 403 kts 249°
2026-05-07 12:52 41.73276 61.20247 33892 ft 402 kts 250°
2026-05-07 12:53 41.71479 61.13188 33892 ft 403 kts 250°
2026-05-07 12:53 41.69676 61.06117 33902 ft 403 kts 249°
2026-05-07 12:54 41.67866 60.99054 33903 ft 402 kts 250°
2026-05-07 12:54 41.66049 60.91975 33913 ft 402 kts 249°
2026-05-07 12:55 41.64243 60.84963 33917 ft 402 kts 249°
2026-05-07 12:55 41.62427 60.77932 33916 ft 402 kts 249°
2026-05-07 12:56 41.60598 60.70870 33917 ft 402 kts 249°
2026-05-07 12:56 41.58777 60.63862 33919 ft 401 kts 249°
2026-05-07 12:57 41.56946 60.56838 33919 ft 401 kts 249°
2026-05-07 12:57 41.55115 60.49833 33920 ft 401 kts 250°
2026-05-07 12:58 41.53281 60.42840 33921 ft 400 kts 250°
2026-05-07 12:58 41.51452 60.35875 33921 ft 400 kts 249°
2026-05-07 12:59 41.49611 60.28902 33923 ft 400 kts 249°
2026-05-07 12:59 41.47771 60.21941 33925 ft 399 kts 249°
2026-05-07 13:00 41.46009 60.14950 33927 ft 399 kts 251°
2026-05-07 13:00 41.44344 60.07937 33929 ft 398 kts 251°
2026-05-07 13:01 41.42673 60.00957 33931 ft 397 kts 251°
2026-05-07 13:01 41.40992 59.93986 33933 ft 397 kts 250°
2026-05-07 13:02 41.39295 59.86993 33936 ft 397 kts 250°
2026-05-07 13:02 41.37596 59.80009 33939 ft 397 kts 250°
2026-05-07 13:03 41.35902 59.73063 33943 ft 396 kts 251°
2026-05-07 13:03 41.34502 59.65937 33945 ft 398 kts 256°
2026-05-07 13:04 41.33627 59.58702 33949 ft 399 kts 260°
2026-05-07 13:04 41.32935 59.51395 33951 ft 399 kts 260°
2026-05-07 13:05 41.32245 59.44099 33958 ft 399 kts 260°
2026-05-07 13:05 41.31551 59.36799 33958 ft 398 kts 261°
2026-05-07 13:06 41.30859 59.29556 33958 ft 398 kts 260°
2026-05-07 13:06 41.30161 59.22273 33961 ft 396 kts 260°
2026-05-07 13:07 41.29461 59.15042 33960 ft 396 kts 260°
2026-05-07 13:07 41.28756 59.07799 33964 ft 395 kts 260°
2026-05-07 13:08 41.28050 59.00591 33966 ft 395 kts 260°
2026-05-07 13:08 41.27338 58.93372 33968 ft 395 kts 260°
2026-05-07 13:09 41.26623 58.86164 33968 ft 394 kts 260°
2026-05-07 13:09 41.25907 58.78999 33970 ft 393 kts 260°
2026-05-07 13:10 41.25181 58.71778 33972 ft 393 kts 260°
2026-05-07 13:10 41.24459 58.64646 33973 ft 393 kts 260°
2026-05-07 13:11 41.23726 58.57461 33975 ft 392 kts 260°
2026-05-07 13:11 41.22992 58.50303 33980 ft 392 kts 260°
2026-05-07 13:12 41.22256 58.43165 33983 ft 392 kts 260°
2026-05-07 13:12 41.21516 58.36034 33984 ft 392 kts 260°
2026-05-07 13:13 41.20765 58.28857 33986 ft 391 kts 260°
2026-05-07 13:13 41.20018 58.21742 33984 ft 390 kts 260°
2026-05-07 13:14 41.19268 58.14673 33984 ft 389 kts 259°
2026-05-07 13:14 41.18518 58.07618 33986 ft 388 kts 260°
2026-05-07 13:15 41.17762 58.00518 33985 ft 388 kts 260°
2026-05-07 13:15 41.17004 57.93449 33986 ft 388 kts 260°
2026-05-07 13:16 41.16246 57.86424 33989 ft 387 kts 260°
2026-05-07 13:16 41.15478 57.79356 33989 ft 387 kts 260°
2026-05-07 13:17 41.14710 57.72341 33990 ft 387 kts 260°
2026-05-07 13:17 41.13933 57.65271 33992 ft 387 kts 259°
2026-05-07 13:18 41.13155 57.58258 33994 ft 385 kts 259°
2026-05-07 13:18 41.12375 57.51254 33997 ft 385 kts 260°
2026-05-07 13:19 41.11591 57.44257 33994 ft 385 kts 259°
2026-05-07 13:19 41.10807 57.37293 33998 ft 385 kts 259°
2026-05-07 13:20 41.10015 57.30310 34001 ft 385 kts 259°
2026-05-07 13:20 41.09220 57.23316 34004 ft 384 kts 259°
2026-05-07 13:21 41.08421 57.16331 34002 ft 384 kts 259°
2026-05-07 13:21 41.07621 57.09392 34006 ft 383 kts 259°
2026-05-07 13:22 41.06817 57.02439 34009 ft 383 kts 259°
2026-05-07 13:22 41.06009 56.95499 34010 ft 382 kts 259°
2026-05-07 13:23 41.05195 56.88552 34020 ft 382 kts 259°
2026-05-07 13:23 41.04380 56.81627 34021 ft 381 kts 259°
2026-05-07 13:24 41.03560 56.74697 34019 ft 381 kts 259°
2026-05-07 13:24 41.02739 56.67811 34026 ft 382 kts 259°
2026-05-07 13:25 41.01906 56.60861 34017 ft 382 kts 259°
2026-05-07 13:25 41.01102 56.53958 34012 ft 382 kts 261°
2026-05-07 13:26 41.00681 56.46929 34005 ft 384 kts 265°
2026-05-07 13:26 41.00585 56.39878 34002 ft 384 kts 266°
2026-05-07 13:27 41.00495 56.32872 34008 ft 383 kts 265°
2026-05-07 13:27 41.00404 56.25853 34009 ft 383 kts 265°
2026-05-07 13:28 41.00311 56.18829 34010 ft 383 kts 265°
2026-05-07 13:28 41.00215 56.11821 34004 ft 382 kts 265°
2026-05-07 13:29 41.00114 56.04818 34006 ft 382 kts 265°
2026-05-07 13:29 41.00010 55.97785 34002 ft 383 kts 265°
2026-05-07 13:30 40.99900 55.90788 34004 ft 382 kts 265°
2026-05-07 13:30 40.99785 55.83746 34006 ft 382 kts 265°
2026-05-07 13:31 40.99668 55.76747 34014 ft 382 kts 265°
2026-05-07 13:31 40.99565 55.69721 34016 ft 382 kts 265°
2026-05-07 13:32 40.99459 55.62738 34021 ft 381 kts 265°
2026-05-07 13:32 40.99344 55.55764 34027 ft 381 kts 265°
2026-05-07 13:33 40.99227 55.48766 34030 ft 380 kts 265°
2026-05-07 13:33 40.99102 55.41796 34031 ft 380 kts 265°
2026-05-07 13:34 40.98909 55.31371 34041 ft 380 kts 265°
2026-05-07 13:35 40.98777 55.24406 34037 ft 380 kts 265°
2026-05-07 13:35 40.98639 55.17447 34033 ft 379 kts 264°
2026-05-07 13:36 40.98495 55.10498 34030 ft 379 kts 265°
2026-05-07 13:36 40.98350 55.03549 34032 ft 379 kts 264°
2026-05-07 13:37 40.98198 54.96589 34033 ft 379 kts 264°
2026-05-07 13:37 40.98042 54.89687 34033 ft 379 kts 264°
2026-05-07 13:38 40.97884 54.82751 34029 ft 378 kts 264°
2026-05-07 13:38 40.97716 54.75824 34028 ft 378 kts 264°
2026-05-07 13:39 40.97544 54.68846 34023 ft 379 kts 264°
2026-05-07 13:39 40.97368 54.61914 34029 ft 379 kts 264°
2026-05-07 13:40 40.97188 54.54980 34028 ft 380 kts 264°
2026-05-07 13:40 40.97001 54.48016 34030 ft 379 kts 264°
2026-05-07 13:41 40.96812 54.41048 34028 ft 379 kts 264°
2026-05-07 13:41 40.96619 54.34144 34028 ft 378 kts 264°
2026-05-07 13:42 40.96421 54.27206 34022 ft 378 kts 264°
2026-05-07 13:42 40.96218 54.20262 34024 ft 379 kts 264°
2026-05-07 13:43 40.96010 54.13316 34015 ft 378 kts 264°
2026-05-07 13:43 40.95801 54.06424 34019 ft 378 kts 264°
2026-05-07 13:44 40.95587 53.99487 34017 ft 379 kts 264°
2026-05-07 13:44 40.95368 53.92562 34019 ft 378 kts 264°
2026-05-07 13:45 40.95144 53.85600 34024 ft 378 kts 264°
2026-05-07 13:45 40.94918 53.78685 34025 ft 379 kts 264°
2026-05-07 13:46 40.94688 53.71773 34027 ft 379 kts 264°
2026-05-07 13:46 40.94449 53.64800 34033 ft 379 kts 264°
2026-05-07 13:47 40.94210 53.57860 34036 ft 379 kts 264°
2026-05-07 13:47 40.93966 53.50924 34043 ft 379 kts 264°
2026-05-07 13:48 40.93717 53.43990 34036 ft 379 kts 264°
2026-05-07 13:48 40.93466 53.37071 34044 ft 380 kts 263°
2026-05-07 13:49 40.93207 53.30118 34052 ft 379 kts 263°
2026-05-07 13:49 40.92944 53.23148 34054 ft 379 kts 263°
2026-05-07 13:50 40.92677 53.16240 34059 ft 379 kts 263°
2026-05-07 13:50 40.92405 53.09268 34063 ft 379 kts 263°
2026-05-07 13:51 40.92129 53.02359 34059 ft 379 kts 263°
2026-05-07 13:51 40.91843 52.95406 34058 ft 379 kts 263°
2026-05-07 13:52 40.91556 52.88486 34069 ft 380 kts 263°
2026-05-07 13:52 40.91259 52.81509 34066 ft 381 kts 263°
2026-05-07 13:53 40.90959 52.74555 34072 ft 381 kts 263°
2026-05-07 13:53 40.90656 52.67590 34074 ft 382 kts 263°
2026-05-07 13:54 40.90185 52.60638 34078 ft 380 kts 259°
2026-05-07 13:54 40.89249 52.53791 34081 ft 379 kts 256°
2026-05-07 13:55 40.88197 52.46993 34084 ft 379 kts 256°
2026-05-07 13:55 40.87128 52.40165 34083 ft 379 kts 256°
2026-05-07 13:56 40.86057 52.33371 34088 ft 379 kts 255°
2026-05-07 13:56 40.84982 52.26590 34092 ft 379 kts 256°
2026-05-07 13:57 40.83901 52.19792 34099 ft 380 kts 256°
2026-05-07 13:57 40.82813 52.12981 34098 ft 380 kts 256°
2026-05-07 13:58 40.81728 52.06216 34102 ft 380 kts 255°
2026-05-07 13:58 40.80629 51.99398 34104 ft 380 kts 255°
2026-05-07 13:59 40.79529 51.92601 34107 ft 380 kts 256°
2026-05-07 13:59 40.78429 51.85831 34104 ft 379 kts 255°
2026-05-07 14:00 40.77320 51.79034 34104 ft 378 kts 256°
2026-05-07 14:00 40.76218 51.72300 34107 ft 379 kts 256°
2026-05-07 14:01 40.75103 51.65528 34106 ft 378 kts 256°
2026-05-07 14:01 40.73985 51.58760 34107 ft 378 kts 256°
2026-05-07 14:02 40.72954 51.51987 34106 ft 380 kts 258°
2026-05-07 14:02 40.72362 51.45084 34105 ft 382 kts 263°
2026-05-07 14:03 40.72073 51.38126 34105 ft 382 kts 263°
2026-05-07 14:03 40.71785 51.31133 34106 ft 382 kts 263°
2026-05-07 14:04 40.71501 51.24193 34104 ft 383 kts 263°
2026-05-07 14:04 40.71211 51.17205 34107 ft 383 kts 263°
2026-05-07 14:05 40.70917 51.10175 34106 ft 384 kts 263°
2026-05-07 14:05 40.70619 51.03175 34104 ft 384 kts 263°
2026-05-07 14:06 40.70319 50.96226 34102 ft 383 kts 263°
2026-05-07 14:06 40.70014 50.89221 34103 ft 383 kts 263°
2026-05-07 14:07 40.69706 50.82239 34100 ft 383 kts 263°
2026-05-07 14:07 40.69392 50.75259 34104 ft 383 kts 263°
2026-05-07 14:08 40.69072 50.68243 34095 ft 384 kts 263°
2026-05-07 14:08 40.68749 50.61264 34102 ft 384 kts 263°
2026-05-07 14:09 40.68419 50.54265 34100 ft 384 kts 263°
2026-05-07 14:09 40.68086 50.47254 34099 ft 384 kts 263°
2026-05-07 14:10 40.67752 50.40242 34101 ft 385 kts 263°
2026-05-07 14:10 40.67414 50.33248 34111 ft 385 kts 262°
2026-05-07 14:11 40.67071 50.26239 34105 ft 385 kts 262°
2026-05-07 14:11 40.66724 50.19247 34094 ft 385 kts 262°
2026-05-07 14:12 40.66370 50.12210 34091 ft 385 kts 262°
2026-05-07 14:12 40.66012 50.05224 34092 ft 384 kts 262°
2026-05-07 14:13 40.65650 49.98214 34091 ft 384 kts 262°
2026-05-07 14:13 40.65281 49.91202 34085 ft 385 kts 262°
2026-05-07 14:14 40.64910 49.84189 34084 ft 386 kts 262°
2026-05-07 14:14 40.64535 49.77197 34084 ft 385 kts 262°
2026-05-07 14:15 40.64154 49.70168 34088 ft 385 kts 262°
2026-05-07 14:15 40.63771 49.63164 34087 ft 385 kts 262°
2026-05-07 14:16 40.63382 49.56177 34088 ft 385 kts 262°
2026-05-07 14:16 40.62987 49.49138 34084 ft 385 kts 262°
2026-05-07 14:17 40.62592 49.42153 34088 ft 385 kts 262°
2026-05-07 14:17 40.62190 49.35154 34087 ft 385 kts 262°
2026-05-07 14:18 40.61781 49.28142 34091 ft 384 kts 261°
2026-05-07 14:18 40.61372 49.21143 34090 ft 385 kts 262°
2026-05-07 14:19 40.61182 49.14098 34089 ft 387 kts 264°
2026-05-07 14:19 40.61051 49.07050 34090 ft 387 kts 264°
2026-05-07 14:20 40.60912 49.00004 34084 ft 387 kts 264°
2026-05-07 14:20 40.60770 48.92908 34080 ft 388 kts 264°
2026-05-07 14:21 40.60624 48.85834 34084 ft 389 kts 264°
2026-05-07 14:21 40.60473 48.78737 34094 ft 389 kts 264°
2026-05-07 14:22 40.60318 48.71635 34095 ft 389 kts 264°
2026-05-07 14:22 40.60160 48.64563 34094 ft 389 kts 264°
2026-05-07 14:23 40.59994 48.57433 34099 ft 389 kts 264°
2026-05-07 14:23 40.59825 48.50338 34098 ft 390 kts 264°
2026-05-07 14:24 40.59652 48.43227 34094 ft 390 kts 264°
2026-05-07 14:24 40.59473 48.36127 34095 ft 391 kts 264°
2026-05-07 14:25 40.59287 48.28983 34093 ft 391 kts 264°
2026-05-07 14:25 40.59099 48.21859 34094 ft 392 kts 263°
2026-05-07 14:26 40.58908 48.14725 34090 ft 392 kts 263°
2026-05-07 14:26 40.58712 48.07573 34088 ft 391 kts 264°
2026-05-07 14:27 40.58511 48.00493 34089 ft 391 kts 264°
2026-05-07 14:27 40.58433 47.93310 34085 ft 395 kts 267°
2026-05-07 14:28 40.58664 47.86089 34083 ft 396 kts 268°
2026-05-07 14:28 40.58897 47.78871 34086 ft 396 kts 268°
2026-05-07 14:29 40.59127 47.71686 34074 ft 396 kts 268°
2026-05-07 14:29 40.59354 47.64452 34074 ft 396 kts 268°
2026-05-07 14:30 40.59575 47.57234 34071 ft 396 kts 268°
2026-05-07 14:30 40.59792 47.50061 34067 ft 396 kts 268°
2026-05-07 14:31 40.60005 47.42798 34070 ft 398 kts 268°
2026-05-07 14:31 40.60210 47.35582 34064 ft 397 kts 268°
2026-05-07 14:32 40.60413 47.28323 34058 ft 398 kts 268°
2026-05-07 14:32 40.60480 47.21090 34056 ft 397 kts 264°
2026-05-07 14:33 40.60027 47.13906 34049 ft 393 kts 259°
2026-05-07 14:33 40.59136 47.06817 34052 ft 393 kts 257°
2026-05-07 14:34 40.58199 46.99775 34049 ft 393 kts 257°
2026-05-07 14:34 40.57251 46.92713 34051 ft 393 kts 257°
2026-05-07 14:35 40.56298 46.85653 34046 ft 393 kts 257°
2026-05-07 14:35 40.55336 46.78581 34049 ft 393 kts 257°
2026-05-07 14:36 40.54372 46.71530 34056 ft 393 kts 257°
2026-05-07 14:36 40.53407 46.64495 34071 ft 394 kts 257°
2026-05-07 14:37 40.52431 46.57427 34082 ft 395 kts 257°
2026-05-07 14:37 40.50954 46.46796 34101 ft 394 kts 257°
2026-05-07 14:38 40.49969 46.39738 34106 ft 395 kts 257°
2026-05-07 14:38 40.48978 46.32675 34116 ft 395 kts 256°
2026-05-07 14:39 40.47979 46.25589 34118 ft 396 kts 256°
2026-05-07 14:39 40.46979 46.18514 34137 ft 395 kts 256°
2026-05-07 14:40 40.45969 46.11420 34145 ft 396 kts 256°
2026-05-07 14:40 40.44961 46.04363 34160 ft 396 kts 256°
2026-05-07 14:41 40.43940 45.97269 34153 ft 396 kts 256°
2026-05-07 14:41 40.42922 45.90206 34155 ft 397 kts 256°
2026-05-07 14:42 40.41891 45.83091 34167 ft 397 kts 256°
2026-05-07 14:42 40.40861 45.76021 34168 ft 398 kts 256°
2026-05-07 14:43 40.39820 45.68919 34177 ft 397 kts 256°
2026-05-07 14:43 40.38793 45.61811 34156 ft 399 kts 257°
2026-05-07 14:44 40.37837 45.54637 34160 ft 399 kts 257°
2026-05-07 14:44 40.36881 45.47503 34172 ft 399 kts 257°
2026-05-07 14:45 40.35934 45.40489 34169 ft 399 kts 257°
2026-05-07 14:45 40.34963 45.33370 34168 ft 399 kts 256°
2026-05-07 14:46 40.33981 45.26208 34403 ft 401 kts 257°
2026-05-07 14:46 40.33485 45.22610 34583 ft 400 kts 257°
2026-05-07 14:46 40.32996 45.19053 34741 ft 401 kts 256°
2026-05-07 14:47 40.32498 45.15458 34904 ft 402 kts 257°
2026-05-07 14:47 40.32002 45.11874 35046 ft 402 kts 257°
2026-05-07 14:47 40.31503 45.08277 35199 ft 402 kts 257°
2026-05-07 14:47 40.31002 45.04693 35320 ft 403 kts 257°
2026-05-07 14:48 40.30504 45.01125 35453 ft 404 kts 257°
2026-05-07 14:48 40.29999 44.97514 35595 ft 405 kts 257°
2026-05-07 14:48 40.29492 44.93896 35766 ft 405 kts 257°
2026-05-07 14:48 40.28982 44.90251 35950 ft 405 kts 257°
2026-05-07 14:49 40.28472 44.86640 36109 ft 406 kts 257°
2026-05-07 14:49 40.27959 44.83010 36151 ft 406 kts 257°
2026-05-07 14:49 40.26935 44.75780 36137 ft 406 kts 257°
2026-05-07 14:50 40.25901 44.68550 36301 ft 407 kts 257°
2026-05-07 14:50 40.25384 44.64937 36009 ft 405 kts 257°
2026-05-07 14:50 40.24867 44.61318 36085 ft 406 kts 257°
2026-05-07 14:51 40.24342 44.57670 36273 ft 407 kts 257°
2026-05-07 14:51 40.23844 44.54064 35974 ft 406 kts 257°
2026-05-07 14:51 40.22853 44.46755 36221 ft 408 kts 258°
2026-05-07 14:52 40.21865 44.39510 36132 ft 406 kts 258°
2026-05-07 14:52 40.20868 44.32259 36100 ft 406 kts 257°
2026-05-07 14:53 40.19860 44.24964 36175 ft 408 kts 257°
2026-05-07 14:53 40.18850 44.17712 36089 ft 408 kts 257°
2026-05-07 14:54 40.17830 44.10413 36068 ft 409 kts 257°
2026-05-07 14:54 40.16811 44.03164 36064 ft 410 kts 257°
2026-05-07 14:55 40.15778 43.95850 36063 ft 411 kts 257°
2026-05-07 14:55 40.14738 43.88523 36070 ft 411 kts 257°
2026-05-07 14:56 40.13690 43.81199 36079 ft 412 kts 257°
2026-05-07 14:56 40.12639 43.73862 36090 ft 412 kts 257°
2026-05-07 14:57 40.11680 43.66494 36096 ft 414 kts 261°
2026-05-07 14:57 40.11192 43.59076 36116 ft 414 kts 263°
2026-05-07 14:58 40.10791 43.51588 36121 ft 415 kts 264°
2026-05-07 14:58 40.10385 43.44068 36136 ft 415 kts 263°
2026-05-07 14:59 40.09974 43.36569 36133 ft 416 kts 263°
2026-05-07 14:59 40.09559 43.29050 36131 ft 416 kts 263°
2026-05-07 15:00 40.09139 43.21532 36126 ft 417 kts 263°
2026-05-07 15:00 40.08709 43.13994 36136 ft 418 kts 263°
2026-05-07 15:01 40.08274 43.06470 36148 ft 419 kts 263°
2026-05-07 15:01 40.07829 42.98863 36141 ft 419 kts 263°
2026-05-07 15:02 40.07386 42.91317 36140 ft 420 kts 263°
2026-05-07 15:02 40.06944 42.83751 36151 ft 420 kts 263°
2026-05-07 15:03 40.06494 42.76188 36169 ft 419 kts 263°
2026-05-07 15:03 40.06034 42.68597 36172 ft 419 kts 263°
2026-05-07 15:04 40.05572 42.61052 36168 ft 420 kts 264°
2026-05-07 15:04 40.05102 42.53474 36163 ft 420 kts 263°
2026-05-07 15:05 40.04627 42.45896 36155 ft 420 kts 263°
2026-05-07 15:05 40.04135 42.38306 36157 ft 420 kts 263°
2026-05-07 15:06 40.03620 42.30749 36157 ft 420 kts 263°
2026-05-07 15:06 40.03098 42.23189 36162 ft 421 kts 263°
2026-05-07 15:07 40.02568 42.15570 36163 ft 421 kts 263°
2026-05-07 15:07 40.02034 42.07975 36161 ft 423 kts 263°
2026-05-07 15:08 40.01495 42.00387 36161 ft 424 kts 263°
2026-05-07 15:08 40.00948 41.92728 36161 ft 424 kts 263°
2026-05-07 15:09 40.00399 41.85133 36161 ft 424 kts 263°
2026-05-07 15:09 39.99837 41.77459 36166 ft 424 kts 263°
2026-05-07 15:10 39.99289 41.69864 36165 ft 424 kts 264°
2026-05-07 15:10 39.98745 41.62206 36163 ft 425 kts 264°
2026-05-07 15:11 39.98197 41.54570 36162 ft 426 kts 264°
2026-05-07 15:11 39.97641 41.46921 36158 ft 426 kts 264°
2026-05-07 15:12 39.97073 41.39209 36155 ft 428 kts 264°
2026-05-07 15:12 39.96502 41.31555 36156 ft 427 kts 263°
2026-05-07 15:13 39.95928 41.23880 36163 ft 427 kts 264°
2026-05-07 15:13 39.95697 41.16164 36165 ft 428 kts 269°
2026-05-07 15:14 39.95701 41.08408 36166 ft 428 kts 269°
2026-05-07 15:14 39.95704 41.00675 36161 ft 428 kts 269°
2026-05-07 15:15 39.95699 40.92953 36156 ft 429 kts 269°
2026-05-07 15:15 39.95686 40.85164 36161 ft 429 kts 269°
2026-05-07 15:16 39.95668 40.77426 36155 ft 431 kts 269°
2026-05-07 15:16 39.95645 40.69638 36152 ft 431 kts 269°
2026-05-07 15:17 39.95622 40.61836 36151 ft 431 kts 269°
2026-05-07 15:17 39.95596 40.54060 36156 ft 431 kts 269°
2026-05-07 15:18 39.95562 40.46297 36156 ft 431 kts 269°
2026-05-07 15:18 39.95523 40.38486 36155 ft 431 kts 269°
2026-05-07 15:19 39.95477 40.30695 36157 ft 432 kts 269°
2026-05-07 15:19 39.95425 40.22872 36161 ft 433 kts 269°
2026-05-07 15:20 39.95368 40.15050 36157 ft 433 kts 269°
2026-05-07 15:20 39.95305 40.07211 36160 ft 433 kts 269°
2026-05-07 15:21 39.95235 39.99396 36164 ft 434 kts 269°
2026-05-07 15:21 39.95161 39.91530 36169 ft 434 kts 269°
2026-05-07 15:22 39.95084 39.83725 36170 ft 434 kts 269°
2026-05-07 15:22 39.94997 39.75845 36178 ft 435 kts 269°
2026-05-07 15:23 39.94904 39.68006 36184 ft 436 kts 269°
2026-05-07 15:23 39.94803 39.60126 36189 ft 436 kts 270°
2026-05-07 15:24 39.94704 39.52243 36195 ft 436 kts 270°
2026-05-07 15:24 39.94603 39.44358 36196 ft 436 kts 270°
2026-05-07 15:25 39.94493 39.36486 36191 ft 436 kts 270°
2026-05-07 15:25 39.94375 39.28589 36188 ft 438 kts 269°
2026-05-07 15:26 39.94251 39.20687 36185 ft 438 kts 269°
2026-05-07 15:26 39.94121 39.12782 36185 ft 439 kts 270°
2026-05-07 15:27 39.93998 39.04858 36196 ft 439 kts 270°
2026-05-07 15:27 39.93875 38.96918 36201 ft 439 kts 270°
2026-05-07 15:28 39.93722 38.88983 36208 ft 439 kts 268°
2026-05-07 15:28 39.93253 38.81134 36214 ft 438 kts 266°
2026-05-07 15:29 39.92725 38.73261 36213 ft 438 kts 266°
2026-05-07 15:29 39.92189 38.65326 36207 ft 439 kts 266°
2026-05-07 15:30 39.91651 38.57447 36217 ft 439 kts 266°
2026-05-07 15:30 39.91110 38.49565 36211 ft 439 kts 267°
2026-05-07 15:31 39.90561 38.41675 36209 ft 438 kts 267°
2026-05-07 15:31 39.90011 38.33820 36204 ft 438 kts 266°
2026-05-07 15:32 39.89452 38.25946 36207 ft 437 kts 266°
2026-05-07 15:32 39.88889 38.18096 36197 ft 437 kts 266°
2026-05-07 15:33 39.88319 38.10230 36202 ft 437 kts 266°
2026-05-07 15:33 39.87745 38.02377 36192 ft 438 kts 266°
2026-05-07 15:34 39.87167 37.94494 36200 ft 438 kts 267°
2026-05-07 15:34 39.86597 37.86641 36201 ft 438 kts 267°
2026-05-07 15:35 39.86019 37.78791 36208 ft 438 kts 267°
2026-05-07 15:35 39.85430 37.70898 36221 ft 437 kts 267°
2026-05-07 15:36 39.84840 37.63087 36211 ft 437 kts 267°
2026-05-07 15:36 39.84243 37.55238 36213 ft 438 kts 267°
2026-05-07 15:37 39.83637 37.47381 36210 ft 437 kts 267°
2026-05-07 15:37 39.83029 37.39526 36206 ft 438 kts 267°
2026-05-07 15:38 39.82411 37.31680 36215 ft 438 kts 267°
2026-05-07 15:38 39.81784 37.23823 36210 ft 437 kts 267°
2026-05-07 15:39 39.81150 37.15955 36202 ft 437 kts 267°
2026-05-07 15:39 39.80515 37.08144 36205 ft 437 kts 267°
2026-05-07 15:40 39.79842 37.00311 36205 ft 438 kts 264°
2026-05-07 15:40 39.78289 36.92618 36198 ft 444 kts 252°
2026-05-07 15:41 39.75227 36.85546 36201 ft 452 kts 236°
2026-05-07 15:41 39.70926 36.79579 36201 ft 456 kts 229°
2026-05-07 15:42 39.66431 36.73769 36199 ft 457 kts 229°
2026-05-07 15:42 39.61933 36.67950 36194 ft 456 kts 229°
2026-05-07 15:43 39.57459 36.62147 36202 ft 456 kts 229°
2026-05-07 15:43 39.53008 36.56379 36200 ft 455 kts 230°
2026-05-07 15:44 39.48548 36.50604 36202 ft 455 kts 230°
2026-05-07 15:44 39.44081 36.44832 36197 ft 455 kts 230°
2026-05-07 15:45 39.39588 36.39038 36202 ft 455 kts 230°
2026-05-07 15:45 39.35126 36.33296 36200 ft 455 kts 229°
2026-05-07 15:46 39.28383 36.24632 36196 ft 456 kts 229°
2026-05-07 15:47 39.23892 36.18877 36207 ft 455 kts 229°
2026-05-07 15:47 39.19426 36.13168 36207 ft 455 kts 230°
2026-05-07 15:48 39.14939 36.07442 36201 ft 454 kts 230°
2026-05-07 15:48 39.10455 36.01728 36209 ft 454 kts 230°
2026-05-07 15:49 39.05951 35.96001 36106 ft 456 kts 230°
2026-05-07 15:49 39.01436 35.90268 36196 ft 457 kts 230°
2026-05-07 15:50 38.96900 35.84523 36203 ft 456 kts 230°
2026-05-07 15:50 38.92398 35.78834 36211 ft 456 kts 230°
2026-05-07 15:51 38.87886 35.73143 36204 ft 456 kts 230°
2026-05-07 15:51 38.83364 35.67446 36211 ft 455 kts 230°
2026-05-07 15:52 38.78871 35.61796 36215 ft 455 kts 230°
2026-05-07 15:52 38.74336 35.56104 36208 ft 455 kts 230°
2026-05-07 15:53 38.69820 35.50448 36206 ft 455 kts 230°
2026-05-07 15:53 38.65281 35.44774 36205 ft 455 kts 230°
2026-05-07 15:54 38.60756 35.39129 36209 ft 454 kts 230°
2026-05-07 15:54 38.56250 35.33517 36211 ft 455 kts 229°
2026-05-07 15:55 38.51730 35.27896 36200 ft 454 kts 229°
2026-05-07 15:55 38.47216 35.22297 36218 ft 454 kts 229°
2026-05-07 15:56 38.42679 35.16677 36227 ft 454 kts 229°
2026-05-07 15:56 38.38154 35.11081 36217 ft 453 kts 229°
2026-05-07 15:57 38.33624 35.05490 36223 ft 454 kts 229°
2026-05-07 15:57 38.29102 34.99923 36226 ft 454 kts 229°
2026-05-07 15:58 38.24583 34.94369 36223 ft 453 kts 230°
2026-05-07 15:58 38.20032 34.88782 36223 ft 453 kts 230°
2026-05-07 15:59 38.15512 34.83244 36223 ft 452 kts 230°
2026-05-07 15:59 38.10978 34.77701 36229 ft 451 kts 230°
2026-05-07 16:00 38.06451 34.72176 36222 ft 452 kts 230°
2026-05-07 16:00 38.01923 34.66659 36222 ft 452 kts 230°
2026-05-07 16:01 37.97409 34.61163 36214 ft 451 kts 231°
2026-05-07 16:01 37.93707 34.54962 36215 ft 440 kts 244°
2026-05-07 16:02 37.90519 34.48378 36219 ft 440 kts 245°
2026-05-07 16:02 37.87309 34.41784 36215 ft 439 kts 244°
2026-05-07 16:03 37.84108 34.35274 36220 ft 438 kts 244°
2026-05-07 16:03 37.80882 34.28744 36211 ft 440 kts 244°
2026-05-07 16:04 37.77633 34.22190 36199 ft 439 kts 244°
2026-05-07 16:04 37.74399 34.15681 36196 ft 439 kts 244°
2026-05-07 16:05 37.71162 34.09180 36209 ft 438 kts 244°
2026-05-07 16:05 37.67915 34.02674 36213 ft 438 kts 244°
2026-05-07 16:06 37.64663 33.96166 36206 ft 437 kts 244°
2026-05-07 16:06 37.61421 33.89686 36207 ft 437 kts 244°
2026-05-07 16:07 37.58185 33.83236 36211 ft 437 kts 244°
2026-05-07 16:07 37.54923 33.76746 36213 ft 438 kts 244°
2026-05-07 16:08 37.51679 33.70307 36209 ft 438 kts 244°
2026-05-07 16:08 37.48417 33.63845 36202 ft 438 kts 244°
2026-05-07 16:09 37.45148 33.57383 36201 ft 438 kts 244°
2026-05-07 16:09 37.41898 33.50970 36203 ft 437 kts 244°
2026-05-07 16:10 37.38618 33.44511 36203 ft 437 kts 244°
2026-05-07 16:10 37.35349 33.38087 36197 ft 437 kts 244°
2026-05-07 16:11 37.32086 33.31687 36195 ft 437 kts 243°
2026-05-07 16:11 37.28801 33.25257 36196 ft 437 kts 243°
2026-05-07 16:12 37.25538 33.18879 36188 ft 437 kts 243°
2026-05-07 16:12 37.22249 33.12463 36181 ft 436 kts 243°
2026-05-07 16:13 37.18960 33.06060 36184 ft 437 kts 243°
2026-05-07 16:13 37.15672 32.99672 36183 ft 437 kts 243°
2026-05-07 16:14 37.12380 32.93287 36191 ft 437 kts 243°
2026-05-07 16:14 37.09105 32.86950 36191 ft 437 kts 243°
2026-05-07 16:15 37.05778 32.80526 36200 ft 437 kts 243°
2026-05-07 16:15 37.02717 32.74038 36202 ft 429 kts 253°
2026-05-07 16:16 37.01181 32.66931 36209 ft 417 kts 268°
2026-05-07 16:16 37.01226 32.59816 36215 ft 408 kts 282°
2026-05-07 16:17 37.02721 32.53033 36192 ft 401 kts 294°
2026-05-07 16:17 37.03741 32.49825 35811 ft 402 kts 295°
2026-05-07 16:17 37.04791 32.46573 35077 ft 407 kts 295°
2026-05-07 16:17 37.05855 32.43288 34266 ft 411 kts 295°
2026-05-07 16:18 37.06923 32.39984 33399 ft 413 kts 295°
2026-05-07 16:18 37.08002 32.36640 32510 ft 415 kts 295°
2026-05-07 16:18 37.09079 32.33289 31548 ft 418 kts 295°
2026-05-07 16:18 37.10168 32.29898 30573 ft 422 kts 295°
2026-05-07 16:19 37.11253 32.26513 29788 ft 420 kts 295°
2026-05-07 16:19 37.12329 32.23151 29235 ft 414 kts 295°
2026-05-07 16:19 37.13384 32.19851 28631 ft 410 kts 295°
2026-05-07 16:19 37.14431 32.16565 27774 ft 402 kts 295°
2026-05-07 16:20 37.15454 32.13353 26748 ft 394 kts 295°
2026-05-07 16:20 37.16440 32.10247 26318 ft 382 kts 295°
2026-05-07 16:20 37.17410 32.07200 25923 ft 379 kts 295°
2026-05-07 16:20 37.18387 32.04129 25523 ft 378 kts 295°
2026-05-07 16:21 37.19351 32.01094 25118 ft 376 kts 295°
2026-05-07 16:21 37.20310 31.98071 24724 ft 374 kts 295°
2026-05-07 16:21 37.21273 31.95028 24323 ft 372 kts 295°
2026-05-07 16:21 37.22218 31.92047 23929 ft 370 kts 295°
2026-05-07 16:22 37.23168 31.89042 23535 ft 368 kts 295°
2026-05-07 16:22 37.24097 31.86103 23154 ft 367 kts 295°
2026-05-07 16:22 37.25042 31.83115 22774 ft 366 kts 295°
2026-05-07 16:22 37.25970 31.80166 22394 ft 364 kts 295°
2026-05-07 16:23 37.26902 31.77209 22013 ft 364 kts 295°
2026-05-07 16:23 37.27828 31.74265 21632 ft 362 kts 295°
2026-05-07 16:23 37.28749 31.71336 21257 ft 361 kts 295°
2026-05-07 16:23 37.29662 31.68427 20839 ft 358 kts 295°
2026-05-07 16:24 37.30558 31.65567 20392 ft 356 kts 295°
2026-05-07 16:24 37.31467 31.62664 19929 ft 354 kts 295°
2026-05-07 16:24 37.32361 31.59807 19468 ft 352 kts 294°
2026-05-07 16:24 37.33258 31.56937 19009 ft 350 kts 294°
2026-05-07 16:25 37.34143 31.54101 18552 ft 349 kts 294°
2026-05-07 16:25 37.35021 31.51286 18092 ft 347 kts 294°
2026-05-07 16:25 37.35900 31.48459 17631 ft 346 kts 294°
2026-05-07 16:25 37.36768 31.45669 17176 ft 344 kts 294°
2026-05-07 16:26 37.37633 31.42881 16710 ft 343 kts 294°
2026-05-07 16:26 37.38510 31.40060 16235 ft 341 kts 294°
2026-05-07 16:26 37.39361 31.37314 15779 ft 340 kts 294°
2026-05-07 16:26 37.39938 31.35450 15470 ft 340 kts 294°
2026-05-07 16:27 37.41074 31.31783 14846 ft 338 kts 293°
2026-05-07 16:27 37.41926 31.29019 14394 ft 338 kts 292°
2026-05-07 16:27 37.42594 31.26202 13931 ft 339 kts 285°
2026-05-07 16:27 37.42961 31.23297 13485 ft 340 kts 278°
2026-05-07 16:28 37.43121 31.20342 13034 ft 339 kts 276°
2026-05-07 16:28 37.43242 31.17369 12576 ft 339 kts 275°
2026-05-07 16:28 37.43358 31.14414 12114 ft 338 kts 275°
2026-05-07 16:28 37.43477 31.11472 11656 ft 337 kts 275°
2026-05-07 16:29 37.43598 31.08526 11194 ft 336 kts 276°
2026-05-07 16:29 37.43719 31.05576 10788 ft 332 kts 276°
2026-05-07 16:29 37.43835 31.02746 10701 ft 318 kts 276°
2026-05-07 16:29 37.43947 31.00014 10595 ft 305 kts 276°
2026-05-07 16:30 37.44055 30.97420 10499 ft 292 kts 276°
2026-05-07 16:30 37.44133 30.94931 10408 ft 280 kts 270°
2026-05-07 16:30 37.43596 30.92652 10372 ft 271 kts 237°
2026-05-07 16:30 37.42168 30.91092 9996 ft 278 kts 205°
2026-05-07 16:31 37.40328 30.90317 9454 ft 279 kts 196°
2026-05-07 16:31 37.38464 30.89679 8964 ft 275 kts 196°
2026-05-07 16:31 37.36670 30.89022 8531 ft 268 kts 198°
2026-05-07 16:31 37.34907 30.88323 8109 ft 261 kts 199°
2026-05-07 16:32 37.33194 30.87611 7696 ft 254 kts 199°
2026-05-07 16:32 37.31552 30.86924 7303 ft 247 kts 197°
2026-05-07 16:32 37.29889 30.86395 6986 ft 241 kts 191°
2026-05-07 16:32 37.28240 30.86021 6875 ft 243 kts 190°
2026-05-07 16:33 37.26556 30.85659 6749 ft 242 kts 190°
2026-05-07 16:33 37.24894 30.85305 6628 ft 241 kts 190°
2026-05-07 16:33 37.23269 30.84936 6384 ft 232 kts 196°
2026-05-07 16:33 37.21801 30.84246 6069 ft 221 kts 204°
2026-05-07 16:34 37.20372 30.83626 5671 ft 215 kts 195°
2026-05-07 16:34 37.18946 30.83260 5388 ft 204 kts 189°
2026-05-07 16:34 37.17557 30.83024 5119 ft 197 kts 187°
2026-05-07 16:34 37.16220 30.82834 4896 ft 187 kts 186°
2026-05-07 16:35 37.14966 30.82665 4634 ft 174 kts 186°
2026-05-07 16:35 37.13803 30.82509 4395 ft 161 kts 186°
2026-05-07 16:35 37.12720 30.82364 4180 ft 156 kts 186°
2026-05-07 16:35 37.11630 30.82218 3991 ft 156 kts 186°
2026-05-07 16:36 37.10566 30.82075 3804 ft 155 kts 186°
2026-05-07 16:36 37.09497 30.81930 3613 ft 154 kts 186°
2026-05-07 16:36 37.08424 30.81785 3418 ft 153 kts 186°
2026-05-07 16:36 37.07383 30.81644 3222 ft 151 kts 187°
2026-05-07 16:37 37.06336 30.81501 3024 ft 150 kts 186°
2026-05-07 16:37 37.05298 30.81358 2823 ft 149 kts 186°
2026-05-07 16:37 37.04267 30.81217 2622 ft 149 kts 185°
2026-05-07 16:37 37.03238 30.81075 2421 ft 147 kts 185°
2026-05-07 16:38 37.02222 30.80935 2223 ft 146 kts 184°
2026-05-07 16:38 37.01210 30.80796 2029 ft 146 kts 184°
2026-05-07 16:38 37.00211 30.80659 1843 ft 144 kts 184°
2026-05-07 16:38 36.99210 30.80521 1653 ft 143 kts 184°
2026-05-07 16:39 36.98215 30.80385 1466 ft 143 kts 184°
2026-05-07 16:39 36.97247 30.80253 1288 ft 143 kts 184°
2026-05-07 16:39 36.96253 30.80117 1105 ft 143 kts 183°
2026-05-07 16:39 36.95260 30.79983 915 ft 143 kts 184°
2026-05-07 16:40 36.94281 30.79847 734 ft 143 kts 184°
2026-05-07 16:40 36.93285 30.79705 567 ft 142 kts 183°
2026-05-07 16:40 36.92300 30.79581 386 ft 142 kts 182°
2026-05-07 16:40 36.91322 30.79441 198 ft 141 kts 182°
2026-05-07 16:41 36.90438 30.79326 185 ft 105 kts 186°
2026-05-07 16:41 36.89879 30.79249 185 ft 55 kts 187°
2026-05-07 16:41 36.89609 30.79228 185 ft 21 kts 167°
2026-05-07 16:41 36.89493 30.79285 185 ft 12 kts 156°
2026-05-07 16:42 36.89444 30.79313 185 ft 6 kts 156°
2026-05-07 16:42 36.89423 30.79324 185 ft 1 kts 156°
2026-05-07 16:42 36.89420 30.79326 185 ft 0 kts 156°
2026-05-07 16:42 36.89417 30.79328 185 ft 0 kts 156°
2026-05-07 16:43 36.89415 30.79328 185 ft 0 kts 156°
2026-05-07 16:43 36.89410 30.79333 185 ft 2 kts 140°
2026-05-07 16:43 36.89396 30.79373 185 ft 6 kts 88°
2026-05-07 16:43 36.89434 30.79405 185 ft 7 kts 10°
2026-05-07 16:44 36.89489 30.79414 185 ft 8 kts
2026-05-07 16:44 36.89552 30.79423 185 ft 9 kts
2026-05-07 16:44 36.89613 30.79432 185 ft 8 kts
2026-05-07 16:44 36.89663 30.79466 185 ft 8 kts 67°
2026-05-07 16:45 36.89664 30.79534 185 ft 6 kts 96°
2026-05-07 16:45 36.89658 30.79595 185 ft 7 kts 96°
2026-05-07 16:45 36.89653 30.79663 185 ft 8 kts 96°
2026-05-07 16:45 36.89646 30.79743 185 ft 10 kts 96°
2026-05-07 16:46 36.89638 30.79837 185 ft 11 kts 96°
2026-05-07 16:46 36.89629 30.79927 185 ft 9 kts 98°
2026-05-07 16:46 36.89623 30.80005 185 ft 7 kts 86°
2026-05-07 16:46 36.89647 30.80044 185 ft 5 kts 32°
2026-05-07 16:47 36.89679 30.80067 185 ft 3 kts 30°
2026-05-07 16:47 36.89699 30.80082 185 ft 0 kts 29°
2026-05-07 16:47 36.89701 30.80083 185 ft 0 kts 30°